Flag for Norway

Past Weather in Gjøvik, Norway — Yesterday and Last 2 Weeks

Now
43 °F

Rain. Overcast.


Feels Like: 33 °F
Forecast: 51 / 45 °F
Wind: 26 mph from North

Location: Oslo Gardermoen Airport
Current Time: Sep 26, 2020 at 4:47:17 am
Latest Report: Sep 26, 2020 at 4:20 am
Visibility: 6 mi
Pressure29.59 "Hg
Humidity: 87%
Dew Point: 39 °F
Location of GjøvikLocation

Past Weather in Gjøvik — Graph

°F

Gjøvik Temperature Yesterday

Maximum temperature yesterday: 55 °F (at 2:50 pm)
Minimum temperature yesterday: 37 °F (at 6:50 am)
Average temperature yesterday: 48 °F

High & Low Weather Summary for the Past Weeks

 TemperatureHumidityPressure
High72 °F (Sep 18, 3:20 pm)100% (Sep 11, 9:50 pm)30.45 "Hg (Sep 11, 9:50 pm)
Low37 °F (Sep 18, 4:20 am)34% (Sep 17, 3:50 pm)29.21 "Hg (Sep 24, 11:50 am)
Average53 °F76%29.87 "Hg
* Reported Sep 11 3:20 am — Sep 26 3:20 am, Gjøvik. Weather by CustomWeather, © 2020

Note: Actual official high and low records may vary slightly from our data, if they occured in-between our weather recording intervals... More about our weather records

Gjøvik Weather History for the Previous 24 Hours

Scroll right to see more
 ConditionsComfort  
Time TempWeatherWind HumidityBarometerVisibility
3:20 am
Sat, Sep 26
43 °FRain. Passing clouds.20 mph93%29.62 "Hg6 mi
2:50 am45 °FRain. Passing clouds.18 mph87%29.62 "HgN/A
1:50 am46 °FLight rain. Passing clouds.17 mph76%29.65 "HgN/A
1:20 am48 °FLight rain. Passing clouds.22 mph66%29.65 "HgN/A
12:50 am48 °FPassing clouds.20 mph71%29.65 "HgN/A
12:20 am46 °FPassing clouds.17 mph76%29.65 "HgN/A
11:50 pm
Fri, Sep 25
46 °FPartly cloudy.15 mph82%29.65 "HgN/A
11:20 pm46 °FLight rain. Passing clouds.16 mph76%29.68 "HgN/A
10:50 pm46 °FLight rain. Passing clouds.14 mph82%29.68 "HgN/A
10:20 pm48 °FLight rain. Clear.14 mph76%29.68 "HgN/A
9:20 pm48 °FLight rain. Passing clouds.14 mph76%29.71 "HgN/A
8:50 pm50 °FLight rain. Passing clouds.16 mph71%29.71 "HgN/A
8:20 pm50 °FLight rain. Passing clouds.12 mph76%29.68 "HgN/A
7:50 pm52 °FLight rain. Clear.10 mph67%29.68 "HgN/A
7:20 pm52 °FClear.10 mph67%29.68 "Hg10 mi
6:50 pm52 °FSunny.8 mph67%29.68 "Hg10 mi
6:20 pm52 °FSunny.9 mph67%29.68 "Hg10 mi
5:50 pm52 °FSunny.10 mph72%29.68 "Hg10 mi
5:20 pm54 °FSunny.8 mph67%29.68 "Hg10 mi
4:50 pm54 °FSunny.10 mph67%29.68 "Hg10 mi
4:20 pm54 °FSunny.12 mph63%29.68 "Hg10 mi
3:50 pm54 °FSunny.12 mph67%29.68 "Hg10 mi
3:20 pm55 °FPassing clouds.14 mph63%29.68 "HgN/A
2:50 pm55 °FSunny.12 mph63%29.68 "Hg10 mi
2:20 pm54 °FSunny.12 mph63%29.68 "Hg10 mi
1:50 pm54 °FSunny.12 mph63%29.68 "Hg10 mi
1:20 pm54 °FSunny.10 mph67%29.68 "Hg10 mi
12:50 pm52 °FPassing clouds.8 mph72%29.71 "HgN/A
12:20 pm52 °FSunny.9 mph67%29.68 "Hg10 mi
11:50 am50 °FSunny.8 mph71%29.68 "Hg10 mi
11:20 am48 °FPassing clouds.5 mph82%29.68 "HgN/A
10:50 am46 °FPassing clouds.6 mph87%29.65 "HgN/A
10:20 am45 °FPassing clouds.3 mph87%29.65 "HgN/A
9:50 am43 °FSunny.5 mph93%29.62 "Hg10 mi
9:20 am41 °FPassing clouds.5 mph93%29.59 "HgN/A
8:50 am39 °FSunny.3 mph93%29.59 "Hg10 mi
8:20 am39 °FSunny.7 mph93%29.59 "Hg10 mi
7:20 am37 °FPassing clouds.3 mph93%29.56 "HgN/A
6:50 am37 °FPassing clouds.3 mph93%29.56 "HgN/A
6:20 am39 °FClear.5 mph93%29.53 "Hg10 mi
5:50 am41 °FClear.8 mph87%29.53 "Hg10 mi
5:20 am41 °FClear.9 mph87%29.50 "Hg10 mi
4:50 am43 °FClear.8 mph87%29.50 "Hg10 mi
4:20 am45 °FClear.7 mph81%29.50 "Hg10 mi
Weather by CustomWeather, © 2020

See weather overview